START_TIME,STEP,MOV.,A46,t_acc.,A13,t_acc.,M47,t_acc.,A17,t_acc.,A28,t_acc.,M38,t_acc.
1979-07-28 06:00:24.700 ,0,1,,0,8.,4.8,0.,4.8,,0,0.,4.8,2.,4.8
1979-07-28 06:00:29.500 ,0,1,,0,3.,4.8,0.,4.8,,0,0.,4.8,1.,4.8
1979-07-28 06:00:34.300 ,0,1,,0,6.,4.8,0.,4.8,,0,0.,4.8,7.,4.8
1979-07-28 06:00:39.100 ,0,1,,0,0.,4.8,0.,4.8,,0,0.,4.8,4.,4.8
1979-07-28 06:00:43.900 ,0,1,,0,0.,4.8,0.,4.8,,0,0.,4.8,10.,4.8
1979-07-28 06:00:48.700 ,4,1,,0,0.,4.8,0.,4.8,,0,0.,4.8,5.,4.8
1979-07-28 06:00:53.500 ,4,1,,0,0.,4.8,0.,4.8,,0,0.,4.8,2.,4.8
1979-07-28 06:00:58.300 ,4,1,,0,1.,4.8,0.,4.8,,0,0.,4.8,5.,4.8
1979-07-28 06:01:03.100 ,4,1,,0,5.,4.8,1.,4.8,,0,0.,4.8,4.,4.8
1979-07-28 06:01:07.900 ,4,1,,0,6.,4.8,0.,4.8,,0,0.,4.8,2.,4.8
1979-07-28 06:01:12.700 ,7,1,,0,10.,4.8,1.,4.8,,0,0.,4.8,2.,4.8
1979-07-28 06:01:17.500 ,7,1,,0,10.,4.8,1.,4.8,,0,0.,4.8,3.,4.8
1979-07-28 06:01:22.300 ,7,1,,0,10.,4.8,0.,4.8,,0,0.,4.8,4.,4.8
1979-07-28 06:01:27.100 ,7,1,,0,0.,4.8,0.,4.8,,0,0.,4.8,0.,4.8
1979-07-28 06:01:31.900 ,7,1,,0,0.,4.8,0.,4.8,,0,0.,4.8,0.,4.8
1979-07-28 06:01:36.700 ,3,1,,0,0.,4.8,0.,4.8,,0,0.,4.8,2.,4.8
1979-07-28 06:01:41.500 ,3,1,,0,0.,4.8,0.,4.8,,0,0.,4.8,0.,4.8
1979-07-28 06:01:46.300 ,3,1,,0,1.,4.8,0.,4.8,,0,0.,4.8,3.,4.8
1979-07-28 06:01:51.100 ,3,1,,0,8.,4.8,1.,4.8,,0,0.,4.8,2.,4.8
1979-07-28 06:01:55.900 ,3,1,,0,3.,4.8,0.,4.8,,0,0.,4.8,4.,4.8
1979-07-28 06:02:00.700 ,0,1,,0,6.,4.8,1.,4.8,,0,0.,4.8,2.,4.8
1979-07-28 06:02:05.500 ,0,1,,0,9.,4.8,0.,4.8,,0,0.,4.8,4.,4.8
1979-07-28 06:02:10.300 ,0,1,,0,11.,4.8,0.,4.8,,0,0.,4.8,5.,4.8
1979-07-28 06:02:15.100 ,0,1,,0,0.,4.8,0.,4.8,,0,0.,4.8,6.,4.8
1979-07-28 06:02:19.900 ,0,1,,0,0.,4.8,0.,4.8,,0,0.,4.8,6.,4.8
1979-07-28 06:02:24.700 ,4,1,,0,0.,4.8,0.,4.8,,0,0.,4.8,5.,4.8
1979-07-28 06:02:29.500 ,4,1,,0,0.,4.8,0.,4.8,,0,0.,4.8,3.,4.8
1979-07-28 06:02:34.300 ,4,1,,0,1.,4.8,0.,4.8,,0,0.,4.8,3.,4.8
1979-07-28 06:02:39.100 ,4,1,,0,6.,4.8,0.,4.8,,0,0.,4.8,1.,4.8
1979-07-28 06:02:43.900 ,4,1,,0,6.,4.8,0.,4.8,,0,0.,4.8,4.,4.8
1979-07-28 06:02:48.700 ,7,1,,0,10.,4.8,2.,4.8,,0,0.,4.8,0.,4.8
1979-07-28 06:02:53.500 ,7,1,,0,11.,4.8,0.,4.8,,0,0.,4.8,1.,4.8
1979-07-28 06:02:58.300 ,7,1,,0,9.,4.8,0.,4.8,,0,1.,4.8,4.,4.8
1979-07-28 06:03:03.100 ,7,1,,0,0.,4.8,0.,4.8,,0,0.,4.8,0.,4.8
1979-07-28 06:03:07.900 ,7,1,,0,0.,4.8,0.,4.8,,0,0.,4.8,0.,4.8
1979-07-28 06:03:12.700 ,3,1,,0,1.,4.8,0.,4.8,,0,0.,4.8,1.,4.8
1979-07-28 06:03:17.500 ,3,1,,0,0.,4.8,0.,4.8,,0,0.,4.8,3.,4.8
1979-07-28 06:03:22.300 ,3,1,,0,3.,4.8,0.,4.8,,0,0.,4.8,0.,4.8
1979-07-28 06:03:27.100 ,3,1,,0,6.,4.8,0.,4.8,,0,0.,4.8,2.,4.8
1979-07-28 06:03:31.900 ,3,1,,0,4.,4.8,0.,4.8,,0,0.,4.8,0.,4.8
1979-07-28 06:03:36.700 ,0,1,,0,5.,4.8,0.,4.8,,0,0.,4.8,2.,4.8
1979-07-28 06:03:41.500 ,0,1,,0,4.,4.8,0.,4.8,,0,0.,4.8,4.,4.8
1979-07-28 06:03:46.300 ,0,1,,0,8.,4.8,0.,4.8,,0,0.,4.8,4.,4.8
1979-07-28 06:03:51.100 ,0,1,,0,0.,4.8,0.,4.8,,0,0.,4.8,4.,4.8
1979-07-28 06:03:55.900 ,0,1,,0,0.,4.8,0.,4.8,,0,0.,4.8,1.,4.8
1979-07-28 06:04:00.700 ,4,1,,0,0.,4.8,0.,4.8,,0,0.,4.8,7.,4.8
1979-07-28 06:04:05.500 ,4,1,,0,0.,4.8,0.,4.8,,0,0.,4.8,4.,4.8
1979-07-28 06:04:10.300 ,4,1,,0,1.,4.8,0.,4.8,,0,0.,4.8,1.,4.8
1979-07-28 06:04:15.100 ,4,1,,0,6.,4.8,0.,4.8,,0,0.,4.8,2.,4.8
1979-07-28 06:04:19.900 ,4,1,,0,7.,4.8,0.,4.8,,0,0.,4.8,5.,4.8
1979-07-28 06:04:24.700 ,7,1,,0,7.,4.8,1.,4.8,,0,0.,4.8,4.,4.8
1979-07-28 06:04:29.500 ,7,1,,0,18.,4.8,0.,4.8,,0,0.,4.8,1.,4.8
1979-07-28 06:04:34.300 ,7,1,,0,11.,4.8,0.,4.8,,0,0.,4.8,1.,4.8
1979-07-28 06:04:39.100 ,7,1,,0,0.,4.8,0.,4.8,,0,0.,4.8,0.,4.8
1979-07-28 06:04:43.900 ,7,1,,0,0.,4.8,0.,4.8,,0,0.,4.8,0.,4.8
1979-07-28 06:04:48.700 ,3,1,,0,0.,4.8,0.,4.8,,0,0.,4.8,2.,4.8
1979-07-28 06:04:53.500 ,3,1,,0,0.,4.8,0.,4.8,,0,0.,4.8,2.,4.8
1979-07-28 06:04:58.300 ,3,1,,0,1.,4.8,0.,4.8,,0,0.,4.8,4.,4.8
1979-07-28 06:05:03.100 ,3,1,,0,6.,4.8,0.,4.8,,0,0.,4.8,4.,4.8
1979-07-28 06:05:07.900 ,3,1,,0,6.,4.8,0.,4.8,,0,0.,4.8,2.,4.8
1979-07-28 06:05:12.700 ,0,1,,0,3.,4.8,0.,4.8,,0,0.,4.8,0.,4.8
1979-07-28 06:05:17.500 ,0,1,,0,3.,4.8,0.,4.8,,0,0.,4.8,1.,4.8
1979-07-28 06:05:22.300 ,0,1,,0,10.,4.8,1.,4.8,,0,0.,4.8,9.,4.8
1979-07-28 06:05:27.100 ,0,1,,0,0.,4.8,0.,4.8,,0,0.,4.8,8.,4.8
1979-07-28 06:05:31.900 ,0,1,,0,0.,4.8,0.,4.8,,0,0.,4.8,3.,4.8
1979-07-28 06:05:36.700 ,0,0,,0,0.,4.8,0.,4.8,,0,0.,4.8,7.,4.8
1979-07-28 06:05:41.500 ,0,0,,0,0.,4.8,0.,4.8,,0,0.,4.8,0.,4.8
1979-07-28 06:05:46.300 ,0,0,,0,2.,4.8,0.,4.8,,0,0.,4.8,1.,4.8
1979-07-28 06:05:51.100 ,0,0,,0,5.,4.8,0.,4.8,,0,0.,4.8,5.,4.8
1979-07-28 06:05:55.900 ,0,0,,0,7.,4.8,0.,4.8,,0,0.,4.8,1.,4.8
1979-07-28 06:06:00.700 ,0,0,,0,10.,4.8,1.,4.8,,0,0.,4.8,2.,4.8
1979-07-28 06:06:05.500 ,0,0,,0,10.,4.8,0.,4.8,,0,0.,4.8,9.,4.8
1979-07-28 06:06:10.300 ,0,0,,0,7.,4.8,0.,4.8,,0,0.,4.8,7.,4.8
1979-07-28 06:06:15.100 ,0,0,,0,0.,4.8,0.,4.8,,0,0.,4.8,0.,4.8
1979-07-28 06:06:19.900 ,0,0,,0,0.,4.8,0.,4.8,,0,0.,4.8,0.,4.8
1979-07-28 06:06:24.700 ,5,0,,0,0.,4.8,0.,4.8,,0,0.,4.8,3.,4.8
1979-07-28 06:06:29.500 ,5,0,,0,0.,4.8,0.,4.8,,0,0.,4.8,5.,4.8
1979-07-28 06:06:34.300 ,5,0,,0,1.,4.8,0.,4.8,,0,0.,4.8,2.,4.8
1979-07-28 06:06:39.100 ,5,0,,0,7.,4.8,0.,4.8,,0,0.,4.8,3.,4.8
1979-07-28 06:06:43.900 ,5,0,,0,10.,4.8,0.,4.8,,0,0.,4.8,3.,4.8
1979-07-28 06:06:48.700 ,5,0,,0,14.,4.8,0.,4.8,,0,0.,4.8,6.,4.8
1979-07-28 06:06:53.500 ,5,0,,0,11.,4.8,0.,4.8,,0,0.,4.8,0.,4.8
1979-07-28 06:06:58.300 ,5,0,,0,3.,4.8,0.,4.8,,0,0.,4.8,2.,4.8
1979-07-28 06:07:03.100 ,5,0,,0,0.,4.8,0.,4.8,,0,0.,4.8,2.,4.8
1979-07-28 06:07:07.900 ,5,0,,0,0.,4.8,0.,4.8,,0,0.,4.8,2.,4.8
1979-07-28 06:07:12.700 ,4,0,,0,0.,4.8,0.,4.8,,0,0.,4.8,5.,4.8
1979-07-28 06:07:17.500 ,4,0,,0,0.,4.8,0.,4.8,,0,0.,4.8,4.,4.8
1979-07-28 06:07:22.300 ,4,0,,0,0.,4.8,0.,4.8,,0,0.,4.8,0.,4.8
1979-07-28 06:07:27.100 ,4,0,,0,6.,4.8,0.,4.8,,0,0.,4.8,0.,4.8
1979-07-28 06:07:31.900 ,4,0,,0,10.,4.8,0.,4.8,,0,0.,4.8,2.,4.8
1979-07-28 06:07:36.700 ,4,0,,0,9.,4.8,0.,4.8,,0,0.,4.8,0.,4.8
1979-07-28 06:07:41.500 ,4,0,,0,12.,4.8,1.,4.8,,0,0.,4.8,5.,4.8
1979-07-28 06:07:46.300 ,4,0,,0,7.,4.8,0.,4.8,,0,0.,4.8,1.,4.8
1979-07-28 06:07:51.100 ,4,0,,0,0.,4.8,0.,4.8,,0,0.,4.8,0.,4.8
1979-07-28 06:07:55.900 ,4,0,,0,0.,4.8,0.,4.8,,0,0.,4.8,5.,4.8
1979-07-28 06:08:00.700 ,3,0,,0,0.,4.8,0.,4.8,,0,0.,4.8,2.,4.8
1979-07-28 06:08:05.500 ,3,0,,0,0.,4.8,0.,4.8,,0,0.,4.8,0.,4.8
1979-07-28 06:08:10.300 ,3,0,,0,0.,4.8,0.,4.8,,0,0.,4.8,2.,4.8
1979-07-28 06:08:15.100 ,3,0,,0,3.,4.8,0.,4.8,,0,0.,4.8,3.,4.8
1979-07-28 06:08:19.900 ,3,0,,0,10.,4.8,1.,4.8,,0,0.,4.8,1.,4.8
1979-07-28 06:08:24.700 ,3,0,,0,11.,4.8,2.,4.8,,0,0.,4.8,0.,4.8
1979-07-28 06:08:29.500 ,3,0,,0,6.,4.8,0.,4.8,,0,0.,4.8,1.,4.8
1979-07-28 06:08:34.300 ,3,0,,0,4.,4.8,0.,4.8,,0,0.,4.8,0.,4.8
1979-07-28 06:08:39.100 ,3,0,,0,0.,4.8,0.,4.8,,0,0.,4.8,0.,4.8
1979-07-28 06:08:43.900 ,3,0,,0,0.,4.8,0.,4.8,,0,0.,4.8,1.,4.8
1979-07-28 06:08:48.700 ,2,0,,0,0.,4.8,0.,4.8,,0,0.,4.8,1.,4.8
1979-07-28 06:08:53.500 ,2,0,,0,0.,4.8,0.,4.8,,0,0.,4.8,2.,4.8
1979-07-28 06:08:58.300 ,2,0,,0,0.,4.8,0.,4.8,,0,0.,4.8,0.,4.8
1979-07-28 06:09:03.100 ,2,0,,0,11.,4.8,1.,4.8,,0,0.,4.8,3.,4.8
1979-07-28 06:09:07.900 ,2,0,,0,6.,4.8,1.,4.8,,0,0.,4.8,0.,4.8
1979-07-28 06:09:12.700 ,2,0,,0,16.,4.8,0.,4.8,,0,0.,4.8,0.,4.8
1979-07-28 06:09:17.500 ,2,0,,0,5.,4.8,0.,4.8,,0,0.,4.8,5.,4.8
1979-07-28 06:09:22.300 ,2,0,,0,6.,4.8,0.,4.8,,0,0.,4.8,3.,4.8
1979-07-28 06:09:27.100 ,2,0,,0,0.,4.8,0.,4.8,,0,0.,4.8,4.,4.8
1979-07-28 06:09:31.900 ,2,0,,0,0.,4.8,0.,4.8,,0,0.,4.8,0.,4.8
1979-07-28 06:09:36.700 ,1,0,,0,0.,4.8,0.,4.8,,0,0.,4.8,1.,4.8
1979-07-28 06:09:41.500 ,1,0,,0,0.,4.8,0.,4.8,,0,0.,4.8,2.,4.8
1979-07-28 06:09:46.300 ,1,0,,0,1.,4.8,0.,4.8,,0,0.,4.8,5.,4.8
1979-07-28 06:09:51.100 ,1,0,,0,7.,4.8,0.,4.8,,0,0.,4.8,7.,4.8
1979-07-28 06:09:55.900 ,1,0,,0,10.,4.8,1.,4.8,,0,0.,4.8,1.,4.8
1979-07-28 06:10:00.700 ,1,0,,0,5.,4.8,0.,4.8,,0,0.,4.8,3.,4.8
1979-07-28 06:10:05.500 ,1,0,,0,9.,4.8,0.,4.8,,0,0.,4.8,5.,4.8
1979-07-28 06:10:10.300 ,1,0,,0,6.,4.8,0.,4.8,,0,0.,4.8,7.,4.8
1979-07-28 06:10:15.100 ,1,0,,0,0.,4.8,0.,4.8,,0,0.,4.8,1.,4.8
1979-07-28 06:10:19.900 ,1,0,,0,0.,4.8,0.,4.8,,0,0.,4.8,1.,4.8
1979-07-28 06:10:24.700 ,0,0,,0,0.,4.8,0.,4.8,,0,0.,4.8,3.,4.8
1979-07-28 06:10:29.500 ,0,0,,0,0.,4.8,0.,4.8,,0,0.,4.8,8.,4.8
1979-07-28 06:10:34.300 ,0,0,,0,0.,4.8,0.,4.8,,0,0.,4.8,5.,4.8
1979-07-28 06:10:39.100 ,0,0,,0,9.,4.8,0.,4.8,,0,0.,4.8,4.,4.8
1979-07-28 06:10:43.900 ,0,0,,0,12.,4.8,0.,4.8,,0,0.,4.8,3.,4.8
1979-07-28 06:10:48.700 ,0,0,,0,17.,4.8,0.,4.8,,0,0.,4.8,6.,4.8
1979-07-28 06:10:53.500 ,0,0,,0,13.,4.8,3.,4.8,,0,0.,4.8,3.,4.8
1979-07-28 06:10:58.300 ,0,0,,0,7.,4.8,0.,4.8,,0,0.,4.8,5.,4.8
1979-07-28 06:11:03.100 ,0,0,,0,0.,4.8,0.,4.8,,0,0.,4.8,3.,4.8
1979-07-28 06:11:07.900 ,0,0,,0,1.,4.8,1.,4.8,,0,0.,4.8,6.,4.8
1979-07-28 06:11:12.700 ,0,0,,0,0.,4.8,0.,4.8,,0,0.,4.8,9.,4.8
1979-07-28 06:11:17.500 ,0,0,,0,0.,4.8,0.,4.8,,0,0.,4.8,4.,4.8
1979-07-28 06:11:22.300 ,0,0,,0,1.,4.8,0.,4.8,,0,0.,4.8,11.,4.8
1979-07-28 06:11:27.100 ,0,0,,0,9.,4.8,0.,4.8,,0,0.,4.8,7.,4.8
1979-07-28 06:11:31.900 ,0,0,,0,9.,4.8,0.,4.8,,0,0.,4.8,6.,4.8
1979-07-28 06:11:36.700 ,0,0,,0,10.,4.8,0.,4.8,,0,0.,4.8,6.,4.8
1979-07-28 06:11:41.500 ,0,0,,0,8.,4.8,0.,4.8,,0,0.,4.8,5.,4.8
1979-07-28 06:11:46.300 ,0,0,,0,7.,4.8,1.,4.8,,0,0.,4.8,2.,4.8
1979-07-28 06:11:51.100 ,0,0,,0,0.,4.8,0.,4.8,,0,0.,4.8,5.,4.8
1979-07-28 06:11:55.900 ,0,0,,0,0.,4.8,0.,4.8,,0,0.,4.8,3.,4.8
1979-07-28 06:12:00.700 ,1,0,,0,0.,4.8,0.,4.8,,0,0.,4.8,4.,4.8
1979-07-28 06:12:05.500 ,1,0,,0,0.,4.8,0.,4.8,,0,0.,4.8,4.,4.8
1979-07-28 06:12:10.300 ,1,0,,0,3.,4.8,0.,4.8,,0,0.,4.8,2.,4.8
1979-07-28 06:12:15.100 ,1,0,,0,15.,4.8,2.,4.8,,0,0.,4.8,3.,4.8
1979-07-28 06:12:19.900 ,1,0,,0,14.,4.8,1.,4.8,,0,0.,4.8,10.,4.8
1979-07-28 06:12:24.700 ,1,0,,0,9.,4.8,0.,4.8,,0,0.,4.8,3.,4.8
1979-07-28 06:12:29.500 ,1,0,,0,8.,4.8,2.,4.8,,0,0.,4.8,5.,4.8
1979-07-28 06:12:34.300 ,1,0,,0,5.,4.8,0.,4.8,,0,0.,4.8,4.,4.8
1979-07-28 06:12:39.100 ,1,0,,0,0.,4.8,0.,4.8,,0,0.,4.8,7.,4.8
1979-07-28 06:12:43.900 ,1,0,,0,0.,4.8,0.,4.8,,0,0.,4.8,4.,4.8
1979-07-28 06:12:48.700 ,2,0,,0,0.,4.8,0.,4.8,,0,0.,4.8,5.,4.8
1979-07-28 06:12:53.500 ,2,0,,0,0.,4.8,0.,4.8,,0,0.,4.8,3.,4.8
1979-07-28 06:12:58.300 ,2,0,,0,1.,4.8,0.,4.8,,0,1.,4.8,4.,4.8
1979-07-28 06:13:03.100 ,2,0,,0,4.,4.8,0.,4.8,,0,0.,4.8,3.,4.8
1979-07-28 06:13:07.900 ,2,0,,0,3.,4.8,0.,4.8,,0,0.,4.8,0.,4.8
1979-07-28 06:13:12.700 ,2,0,,0,9.,4.8,0.,4.8,,0,0.,4.8,2.,4.8
1979-07-28 06:13:17.500 ,2,0,,0,7.,4.8,1.,4.8,,0,0.,4.8,1.,4.8
1979-07-28 06:13:22.300 ,2,0,,0,11.,4.8,0.,4.8,,0,0.,4.8,1.,4.8
1979-07-28 06:13:27.100 ,2,0,,0,0.,4.8,0.,4.8,,0,0.,4.8,4.,4.8
1979-07-28 06:13:31.900 ,2,0,,0,0.,4.8,0.,4.8,,0,0.,4.8,6.,4.8
1979-07-28 06:13:36.700 ,3,0,,0,0.,4.8,0.,4.8,,0,0.,4.8,2.,4.8
1979-07-28 06:13:41.500 ,3,0,,0,0.,4.8,0.,4.8,,0,0.,4.8,2.,4.8
1979-07-28 06:13:46.300 ,3,0,,0,1.,4.8,0.,4.8,,0,0.,4.8,3.,4.8
1979-07-28 06:13:51.100 ,3,0,,0,8.,4.8,0.,4.8,,0,0.,4.8,2.,4.8
1979-07-28 06:13:55.900 ,3,0,,0,4.,4.8,0.,4.8,,0,0.,4.8,1.,4.8
1979-07-28 06:14:00.700 ,3,0,,0,4.,4.8,0.,4.8,,0,0.,4.8,2.,4.8
1979-07-28 06:14:05.500 ,3,0,,0,2.,4.8,0.,4.8,,0,0.,4.8,4.,4.8
1979-07-28 06:14:10.300 ,3,0,,0,8.,4.8,1.,4.8,,0,0.,4.8,3.,4.8
1979-07-28 06:14:15.100 ,3,0,,0,0.,4.8,0.,4.8,,0,0.,4.8,3.,4.8
1979-07-28 06:14:19.900 ,3,0,,0,0.,4.8,0.,4.8,,0,0.,4.8,0.,4.8
1979-07-28 06:14:24.700 ,4,0,,0,0.,4.8,1.,4.8,,0,0.,4.8,2.,4.8
1979-07-28 06:14:29.500 ,4,0,,0,0.,4.8,0.,4.8,,0,1.,4.8,1.,4.8
1979-07-28 06:14:34.300 ,4,0,,0,1.,4.8,0.,4.8,,0,0.,4.8,2.,4.8
1979-07-28 06:14:39.100 ,4,0,,0,5.,4.8,0.,4.8,,0,0.,4.8,3.,4.8
1979-07-28 06:14:43.900 ,4,0,,0,7.,4.8,0.,4.8,,0,0.,4.8,1.,4.8
1979-07-28 06:14:48.700 ,4,0,,0,8.,4.8,0.,4.8,,0,0.,4.8,1.,4.8
1979-07-28 06:14:53.500 ,4,0,,0,7.,4.8,0.,4.8,,0,0.,4.8,2.,4.8
1979-07-28 06:14:58.300 ,4,0,,0,5.,4.8,0.,4.8,,0,0.,4.8,4.,4.8
1979-07-28 06:15:03.100 ,4,0,,0,0.,4.8,0.,4.8,,0,0.,4.8,2.,4.8
1979-07-28 06:15:07.900 ,4,0,,0,0.,4.8,0.,4.8,,0,0.,4.8,6.,4.8
1979-07-28 06:15:12.700 ,5,0,,0,0.,4.8,1.,4.8,,0,0.,4.8,5.,4.8
1979-07-28 06:15:17.500 ,5,0,,0,0.,4.8,0.,4.8,,0,0.,4.8,6.,4.8
1979-07-28 06:15:22.300 ,5,0,,0,3.,4.8,0.,4.8,,0,0.,4.8,3.,4.8
1979-07-28 06:15:27.100 ,5,0,,0,10.,4.8,1.,4.8,,0,0.,4.8,2.,4.8
1979-07-28 06:15:31.900 ,5,0,,0,8.,4.8,0.,4.8,,0,0.,4.8,0.,4.8
1979-07-28 06:15:36.700 ,5,0,,0,9.,4.8,1.,4.8,,0,0.,4.8,3.,4.8
1979-07-28 06:15:41.500 ,5,0,,0,5.,4.8,0.,4.8,,0,0.,4.8,6.,4.8
1979-07-28 06:15:46.300 ,5,0,,0,12.,4.8,0.,4.8,,0,0.,4.8,1.,4.8
1979-07-28 06:15:51.100 ,5,0,,0,0.,4.8,0.,4.8,,0,0.,4.8,2.,4.8
1979-07-28 06:15:55.900 ,5,0,,0,0.,4.8,0.,4.8,,0,0.,4.8,0.,4.8
1979-07-28 06:16:00.700 ,6,0,,0,0.,4.8,0.,4.8,,0,0.,4.8,3.,4.8
1979-07-28 06:16:05.500 ,6,0,,0,0.,4.8,0.,4.8,,0,0.,4.8,3.,4.8
1979-07-28 06:16:10.300 ,6,0,,0,1.,4.8,0.,4.8,,0,0.,4.8,3.,4.8
1979-07-28 06:16:15.100 ,6,0,,0,11.,4.8,1.,4.8,,0,0.,4.8,2.,4.8
1979-07-28 06:16:19.900 ,6,0,,0,13.,4.8,1.,4.8,,0,0.,4.8,4.,4.8
1979-07-28 06:16:24.700 ,6,0,,0,15.,4.8,0.,4.8,,0,0.,4.8,7.,4.8
1979-07-28 06:16:29.500 ,6,0,,0,15.,4.8,0.,4.8,,0,0.,4.8,2.,4.8
1979-07-28 06:16:34.300 ,6,0,,0,16.,4.8,2.,4.8,,0,0.,4.8,3.,4.8
1979-07-28 06:16:39.100 ,6,0,,0,0.,4.8,0.,4.8,,0,0.,4.8,1.,4.8
1979-07-28 06:16:43.900 ,6,0,,0,0.,4.8,0.,4.8,,0,0.,4.8,3.,4.8
1979-07-28 06:16:48.700 ,7,0,,0,0.,4.8,0.,4.8,,0,0.,4.8,4.,4.8
1979-07-28 06:16:53.500 ,7,0,,0,0.,4.8,0.,4.8,,0,0.,4.8,2.,4.8
1979-07-28 06:16:58.300 ,7,0,,0,2.,4.8,0.,4.8,,0,0.,4.8,0.,4.8
1979-07-28 06:17:03.100 ,7,0,,0,10.,4.8,0.,4.8,,0,0.,4.8,0.,4.8
1979-07-28 06:17:07.900 ,7,0,,0,7.,4.8,0.,4.8,,0,0.,4.8,0.,4.8
1979-07-28 06:17:12.700 ,7,0,,0,13.,4.8,0.,4.8,,0,0.,4.8,0.,4.8
1979-07-28 06:17:17.500 ,7,0,,0,12.,4.8,0.,4.8,,0,0.,4.8,0.,4.8
1979-07-28 06:17:22.300 ,7,0,,0,8.,4.8,0.,4.8,,0,0.,4.8,0.,4.8
1979-07-28 06:17:27.100 ,7,0,,0,0.,4.8,0.,4.8,,0,0.,4.8,0.,4.8
1979-07-28 06:17:31.900 ,7,0,,0,0.,4.8,0.,4.8,,0,0.,4.8,0.,4.8
1979-07-28 06:17:36.700 ,7,0,,0,0.,4.8,0.,4.8,,0,0.,4.8,0.,4.8
1979-07-28 06:17:41.500 ,7,0,,0,0.,4.8,0.,4.8,,0,0.,4.8,0.,4.8
1979-07-28 06:17:46.300 ,7,0,,0,4.,4.8,0.,4.8,,0,0.,4.8,0.,4.8
1979-07-28 06:17:51.100 ,7,0,,0,13.,4.8,0.,4.8,,0,0.,4.8,0.,4.8
1979-07-28 06:17:55.900 ,7,0,,0,8.,4.8,0.,4.8,,0,0.,4.8,0.,4.8
1979-07-28 06:18:00.700 ,7,0,,0,12.,4.8,0.,4.8,,0,0.,4.8,1.,4.8
1979-07-28 06:18:05.500 ,7,0,,0,12.,4.8,0.,4.8,,0,0.,4.8,0.,4.8
1979-07-28 06:18:10.300 ,7,0,,0,10.,4.8,0.,4.8,,0,0.,4.8,0.,4.8
1979-07-28 06:18:15.100 ,7,0,,0,0.,4.8,0.,4.8,,0,0.,4.8,0.,4.8
1979-07-28 06:18:19.900 ,7,0,,0,0.,4.8,0.,4.8,,0,0.,4.8,0.,4.8
1979-07-28 06:18:24.700 ,6,0,,0,0.,4.8,0.,4.8,,0,0.,4.8,0.,4.8
1979-07-28 06:18:29.500 ,6,0,,0,0.,4.8,0.,4.8,,0,0.,4.8,0.,4.8
1979-07-28 06:18:34.300 ,6,0,,0,3.,4.8,0.,4.8,,0,0.,4.8,3.,4.8
1979-07-28 06:18:39.100 ,6,0,,0,12.,4.8,0.,4.8,,0,0.,4.8,1.,4.8
1979-07-28 06:18:43.900 ,6,0,,0,13.,4.8,1.,4.8,,0,0.,4.8,4.,4.8
1979-07-28 06:18:48.700 ,6,0,,0,12.,4.8,0.,4.8,,0,0.,4.8,7.,4.8
1979-07-28 06:18:53.500 ,6,0,,0,9.,4.8,0.,4.8,,0,0.,4.8,1.,4.8
1979-07-28 06:18:58.300 ,6,0,,0,7.,4.8,1.,4.8,,0,0.,4.8,9.,4.8
1979-07-28 06:19:03.100 ,6,0,,0,0.,4.8,0.,4.8,,0,0.,4.8,4.,4.8
1979-07-28 06:19:07.900 ,6,0,,0,1.,4.8,0.,4.8,,0,0.,4.8,4.,4.8
1979-07-28 06:19:12.700 ,5,0,,0,0.,4.8,0.,4.8,,0,0.,4.8,2.,4.8
1979-07-28 06:19:17.500 ,5,0,,0,0.,4.8,0.,4.8,,0,0.,4.8,4.,4.8
1979-07-28 06:19:22.300 ,5,0,,0,2.,4.8,0.,4.8,,0,0.,4.8,3.,4.8
1979-07-28 06:19:27.100 ,5,0,,0,9.,4.8,1.,4.8,,0,0.,4.8,8.,4.8
1979-07-28 06:19:31.900 ,5,0,,0,8.,4.8,0.,4.8,,0,0.,4.8,4.,4.8
1979-07-28 06:19:36.700 ,5,0,,0,10.,4.8,1.,4.8,,0,0.,4.8,4.,4.8
1979-07-28 06:19:41.500 ,5,0,,0,13.,4.8,0.,4.8,,0,0.,4.8,2.,4.8
1979-07-28 06:19:46.300 ,5,0,,0,8.,4.8,0.,4.8,,0,0.,4.8,3.,4.8
1979-07-28 06:19:51.100 ,5,0,,0,0.,4.8,0.,4.8,,0,0.,4.8,2.,4.8
1979-07-28 06:19:55.900 ,5,0,,0,0.,4.8,0.,4.8,,0,0.,4.8,5.,4.8
1979-07-28 06:20:00.700 ,4,0,,0,0.,4.8,0.,4.8,,0,0.,4.8,2.,4.8
1979-07-28 06:20:05.500 ,4,0,,0,0.,4.8,0.,4.8,,0,0.,4.8,6.,4.8
1979-07-28 06:20:10.300 ,4,0,,0,1.,4.8,0.,4.8,,0,0.,4.8,0.,4.8
1979-07-28 06:20:15.100 ,4,0,,0,4.,4.8,0.,4.8,,0,0.,4.8,3.,4.8
1979-07-28 06:20:19.900 ,4,0,,0,9.,4.8,0.,4.8,,0,0.,4.8,0.,4.8
1979-07-28 06:20:24.700 ,4,0,,0,4.,4.8,0.,4.8,,0,0.,4.8,2.,4.8
1979-07-28 06:20:29.500 ,4,0,,0,5.,4.8,1.,4.8,,0,0.,4.8,1.,4.8
1979-07-28 06:20:34.300 ,4,0,,0,9.,4.8,0.,4.8,,0,0.,4.8,1.,4.8
1979-07-28 06:20:39.100 ,4,0,,0,0.,4.8,0.,4.8,,0,0.,4.8,4.,4.8
1979-07-28 06:20:43.900 ,4,0,,0,0.,4.8,0.,4.8,,0,0.,4.8,4.,4.8
1979-07-28 06:20:48.700 ,3,0,,0,0.,4.8,0.,4.8,,0,0.,4.8,2.,4.8
1979-07-28 06:20:53.500 ,3,0,,0,0.,4.8,0.,4.8,,0,0.,4.8,2.,4.8
1979-07-28 06:20:58.300 ,3,0,,0,2.,4.8,0.,4.8,,0,0.,4.8,3.,4.8
1979-07-28 06:21:03.100 ,3,0,,0,5.,4.8,0.,4.8,,0,0.,4.8,1.,4.8
1979-07-28 06:21:07.900 ,3,0,,0,5.,4.8,0.,4.8,,0,0.,4.8,2.,4.8
1979-07-28 06:21:12.700 ,3,0,,0,9.,4.8,1.,4.8,,0,0.,4.8,3.,4.8
1979-07-28 06:21:17.500 ,3,0,,0,5.,4.8,0.,4.8,,0,0.,4.8,0.,4.8
1979-07-28 06:21:22.300 ,3,0,,0,2.,4.8,0.,4.8,,0,0.,4.8,2.,4.8
1979-07-28 06:21:27.100 ,3,0,,0,0.,4.8,0.,4.8,,0,0.,4.8,4.,4.8
1979-07-28 06:21:31.900 ,3,0,,0,0.,4.8,0.,4.8,,0,0.,4.8,2.,4.8
1979-07-28 06:21:36.700 ,2,0,,0,0.,4.8,0.,4.8,,0,0.,4.8,2.,4.8
1979-07-28 06:21:41.500 ,2,0,,0,0.,4.8,0.,4.8,,0,0.,4.8,2.,4.8
1979-07-28 06:21:46.300 ,2,0,,0,2.,4.8,0.,4.8,,0,0.,4.8,3.,4.8
1979-07-28 06:21:51.100 ,2,0,,0,5.,4.8,0.,4.8,,0,0.,4.8,1.,4.8
1979-07-28 06:21:55.900 ,2,0,,0,6.,4.8,0.,4.8,,0,0.,4.8,3.,4.8
1979-07-28 06:22:00.700 ,2,0,,0,7.,4.8,1.,4.8,,0,0.,4.8,3.,4.8
1979-07-28 06:22:05.500 ,2,0,,0,0.,4.8,0.,4.8,,0,0.,4.8,2.,4.8
1979-07-28 06:22:10.300 ,2,0,,0,4.,4.8,0.,4.8,,0,0.,4.8,1.,4.8
1979-07-28 06:22:15.100 ,2,0,,0,0.,4.8,0.,4.8,,0,0.,4.8,2.,4.8
1979-07-28 06:22:19.900 ,2,0,,0,0.,4.8,0.,4.8,,0,0.,4.8,2.,4.8
1979-07-28 06:22:24.700 ,1,0,,0,0.,4.8,0.,4.8,,0,0.,4.8,2.,4.8
1979-07-28 06:22:29.500 ,1,0,,0,0.,4.8,0.,4.8,,0,0.,4.8,5.,4.8
1979-07-28 06:22:34.300 ,1,0,,0,0.,4.8,0.,4.8,,0,0.,4.8,5.,4.8
1979-07-28 06:22:39.100 ,1,0,,0,7.,4.8,0.,4.8,,0,0.,4.8,5.,4.8
1979-07-28 06:22:43.900 ,1,0,,0,13.,4.8,1.,4.8,,0,0.,4.8,7.,4.8
1979-07-28 06:22:48.700 ,1,0,,0,9.,4.8,0.,4.8,,0,0.,4.8,7.,4.8
1979-07-28 06:22:53.500 ,1,0,,0,10.,4.8,1.,4.8,,0,0.,4.8,2.,4.8
1979-07-28 06:22:58.300 ,1,0,,0,5.,4.8,0.,4.8,,0,0.,4.8,7.,4.8
1979-07-28 06:23:03.100 ,1,0,,0,0.,4.8,0.,4.8,,0,0.,4.8,5.,4.8
1979-07-28 06:23:07.900 ,1,0,,0,0.,4.8,0.,4.8,,0,0.,4.8,2.,4.8
1979-07-28 06:23:12.700 ,0,0,,0,0.,4.8,0.,4.8,,0,0.,4.8,7.,4.8
1979-07-28 06:23:17.500 ,0,0,,0,0.,4.8,0.,4.8,,0,0.,4.8,6.,4.8
1979-07-28 06:23:22.300 ,0,0,,0,0.,4.8,0.,4.8,,0,0.,4.8,5.,4.8
1979-07-28 06:23:27.100 ,0,0,,0,8.,4.8,0.,4.8,,0,0.,4.8,4.,4.8
1979-07-28 06:23:31.900 ,0,0,,0,7.,4.8,0.,4.8,,0,0.,4.8,5.,4.8
1979-07-28 06:23:36.700 ,0,0,,0,8.,4.8,0.,4.8,,0,0.,4.8,3.,4.8
1979-07-28 06:23:41.500 ,0,0,,0,10.,4.8,1.,4.8,,0,0.,4.8,3.,4.8
1979-07-28 06:23:46.300 ,0,0,,0,15.,4.8,0.,4.8,,0,0.,4.8,10.,4.8
1979-07-28 06:23:51.100 ,0,0,,0,0.,4.8,0.,4.8,,0,0.,4.8,4.,4.8
1979-07-28 06:23:55.900 ,0,0,,0,0.,4.8,0.,4.8,,0,0.,4.8,7.,4.8
1979-07-28 06:24:00.700 ,0,0,,0,0.,4.8,0.,4.8,,0,0.,4.8,4.,4.8
1979-07-28 06:24:05.500 ,0,0,,0,0.,4.8,0.,4.8,,0,0.,4.8,6.,4.8
1979-07-28 06:24:10.300 ,0,0,,0,0.,4.8,0.,4.8,,0,0.,4.8,2.,4.8
1979-07-28 06:24:15.100 ,0,0,,0,16.,4.8,0.,4.8,,0,0.,4.8,5.,4.8
1979-07-28 06:24:19.900 ,0,0,,0,7.,4.8,1.,4.8,,0,0.,4.8,3.,4.8
1979-07-28 06:24:24.700 ,0,0,,0,13.,4.8,1.,4.8,,0,0.,4.8,13.,4.8
1979-07-28 06:24:29.500 ,0,0,,0,12.,4.8,1.,4.8,,0,0.,4.8,5.,4.8
1979-07-28 06:24:34.300 ,0,0,,0,10.,4.8,1.,4.8,,0,0.,4.8,8.,4.8
1979-07-28 06:24:39.100 ,0,0,,0,0.,4.8,0.,4.8,,0,0.,4.8,7.,4.8
1979-07-28 06:24:43.900 ,0,0,,0,0.,4.8,0.,4.8,,0,0.,4.8,3.,4.8
1979-07-28 06:24:48.700 ,1,0,,0,0.,4.8,0.,4.8,,0,0.,4.8,5.,4.8
1979-07-28 06:24:53.500 ,1,0,,0,0.,4.8,0.,4.8,,0,0.,4.8,2.,4.8
1979-07-28 06:24:58.300 ,1,0,,0,5.,4.8,0.,4.8,,0,0.,4.8,6.,4.8
1979-07-28 06:25:03.100 ,1,0,,0,10.,4.8,0.,4.8,,0,0.,4.8,5.,4.8
1979-07-28 06:25:07.900 ,1,0,,0,12.,4.8,1.,4.8,,0,0.,4.8,3.,4.8
1979-07-28 06:25:12.700 ,1,0,,0,5.,4.8,1.,4.8,,0,0.,4.8,3.,4.8
1979-07-28 06:25:17.500 ,1,0,,0,13.,4.8,0.,4.8,,0,0.,4.8,7.,4.8
1979-07-28 06:25:22.300 ,1,0,,0,9.,4.8,0.,4.8,,0,1.,4.8,4.,4.8
1979-07-28 06:25:27.100 ,1,0,,0,0.,4.8,0.,4.8,,0,0.,4.8,6.,4.8
1979-07-28 06:25:31.900 ,1,0,,0,0.,4.8,0.,4.8,,0,0.,4.8,0.,4.8
1979-07-28 06:25:36.700 ,2,0,,0,0.,4.8,0.,4.8,,0,0.,4.8,5.,4.8
1979-07-28 06:25:41.500 ,2,0,,0,0.,4.8,0.,4.8,,0,0.,4.8,3.,4.8
1979-07-28 06:25:46.300 ,2,0,,0,1.,4.8,0.,4.8,,0,0.,4.8,1.,4.8
1979-07-28 06:25:51.100 ,2,0,,0,12.,4.8,2.,4.8,,0,0.,4.8,1.,4.8
1979-07-28 06:25:55.900 ,2,0,,0,9.,4.8,0.,4.8,,0,0.,4.8,3.,4.8
1979-07-28 06:26:00.700 ,2,0,,0,2.,4.8,0.,4.8,,0,0.,4.8,3.,4.8
1979-07-28 06:26:05.500 ,2,0,,0,6.,4.8,0.,4.8,,0,0.,4.8,7.,4.8
1979-07-28 06:26:10.300 ,2,0,,0,4.,4.8,0.,4.8,,0,0.,4.8,0.,4.8
1979-07-28 06:26:15.100 ,2,0,,0,0.,4.8,0.,4.8,,0,0.,4.8,1.,4.8
1979-07-28 06:26:19.900 ,2,0,,0,0.,4.8,0.,4.8,,0,0.,4.8,4.,4.8
1979-07-28 06:26:24.700 ,3,0,,0,0.,4.8,0.,4.8,,0,0.,4.8,0.,4.8
1979-07-28 06:26:29.500 ,3,0,,0,0.,4.8,0.,4.8,,0,0.,4.8,0.,4.8
1979-07-28 06:26:34.300 ,3,0,,0,1.,4.8,0.,4.8,,0,0.,4.8,2.,4.8
1979-07-28 06:26:39.100 ,3,0,,0,3.,4.8,0.,4.8,,0,0.,4.8,1.,4.8
1979-07-28 06:26:43.900 ,3,0,,0,5.,4.8,0.,4.8,,0,0.,4.8,3.,4.8
1979-07-28 06:26:48.700 ,3,0,,0,10.,4.8,1.,4.8,,0,0.,4.8,3.,4.8
1979-07-28 06:26:53.500 ,3,0,,0,3.,4.8,0.,4.8,,0,0.,4.8,1.,4.8
1979-07-28 06:26:58.300 ,3,0,,0,5.,4.8,0.,4.8,,0,0.,4.8,2.,4.8
1979-07-28 06:27:03.100 ,3,0,,0,0.,4.8,0.,4.8,,0,0.,4.8,4.,4.8
1979-07-28 06:27:07.900 ,3,0,,0,0.,4.8,0.,4.8,,0,0.,4.8,3.,4.8
1979-07-28 06:27:12.700 ,4,0,,0,0.,4.8,0.,4.8,,0,0.,4.8,1.,4.8
1979-07-28 06:27:17.500 ,4,0,,0,0.,4.8,0.,4.8,,0,0.,4.8,1.,4.8
1979-07-28 06:27:22.300 ,4,0,,0,1.,4.8,0.,4.8,,0,0.,4.8,1.,4.8
1979-07-28 06:27:27.100 ,4,0,,0,4.,4.8,0.,4.8,,0,0.,4.8,2.,4.8
1979-07-28 06:27:31.900 ,4,0,,0,4.,4.8,0.,4.8,,0,0.,4.8,3.,4.8
1979-07-28 06:27:36.700 ,4,0,,0,8.,4.8,0.,4.8,,0,0.,4.8,2.,4.8
1979-07-28 06:27:41.500 ,4,0,,0,8.,4.8,1.,4.8,,0,0.,4.8,2.,4.8
1979-07-28 06:27:46.300 ,4,0,,0,4.,4.8,0.,4.8,,0,0.,4.8,3.,4.8
1979-07-28 06:27:51.100 ,4,0,,0,0.,4.8,0.,4.8,,0,0.,4.8,2.,4.8
1979-07-28 06:27:55.900 ,4,0,,0,0.,4.8,0.,4.8,,0,0.,4.8,1.,4.8
1979-07-28 06:28:00.700 ,5,0,,0,0.,4.8,0.,4.8,,0,0.,4.8,0.,4.8
1979-07-28 06:28:05.500 ,5,0,,0,0.,4.8,0.,4.8,,0,0.,4.8,2.,4.8
1979-07-28 06:28:10.300 ,5,0,,0,1.,4.8,0.,4.8,,0,0.,4.8,4.,4.8
1979-07-28 06:28:15.100 ,5,0,,0,6.,4.8,0.,4.8,,0,0.,4.8,3.,4.8
1979-07-28 06:28:19.900 ,5,0,,0,6.,4.8,0.,4.8,,0,0.,4.8,4.,4.8
1979-07-28 06:28:24.700 ,5,0,,0,11.,4.8,0.,4.8,,0,0.,4.8,2.,4.8
1979-07-28 06:28:29.500 ,5,0,,0,11.,4.8,1.,4.8,,0,0.,4.8,3.,4.8
1979-07-28 06:28:34.300 ,5,0,,0,8.,4.8,0.,4.8,,0,0.,4.8,5.,4.8
1979-07-28 06:28:39.100 ,5,0,,0,0.,4.8,0.,4.8,,0,0.,4.8,5.,4.8
1979-07-28 06:28:43.900 ,5,0,,0,0.,4.8,0.,4.8,,0,0.,4.8,4.,4.8
1979-07-28 06:28:48.700 ,6,0,,0,0.,4.8,0.,4.8,,0,0.,4.8,3.,4.8
1979-07-28 06:28:53.500 ,6,0,,0,0.,4.8,0.,4.8,,0,0.,4.8,7.,4.8
1979-07-28 06:28:58.300 ,6,0,,0,4.,4.8,1.,4.8,,0,0.,4.8,2.,4.8
1979-07-28 06:29:03.100 ,6,0,,0,10.,4.8,0.,4.8,,0,0.,4.8,3.,4.8
1979-07-28 06:29:07.900 ,6,0,,0,15.,4.8,0.,4.8,,0,0.,4.8,7.,4.8
1979-07-28 06:29:12.700 ,6,0,,0,11.,4.8,0.,4.8,,0,0.,4.8,2.,4.8
1979-07-28 06:29:17.500 ,6,0,,0,17.,4.8,0.,4.8,,0,0.,4.8,7.,4.8
1979-07-28 06:29:22.300 ,6,0,,0,10.,4.8,1.,4.8,,0,0.,4.8,5.,4.8
1979-07-28 06:29:27.100 ,6,0,,0,0.,4.8,0.,4.8,,0,0.,4.8,4.,4.8
1979-07-28 06:29:31.900 ,6,0,,0,1.,4.8,0.,4.8,,0,0.,4.8,5.,4.8
1979-07-28 06:29:36.700 ,7,0,,0,0.,4.8,0.,4.8,,0,0.,4.8,6.,4.8
1979-07-28 06:29:41.500 ,7,0,,0,0.,4.8,0.,4.8,,0,0.,4.8,2.,4.8
1979-07-28 06:29:46.300 ,7,0,,0,2.,4.8,0.,4.8,,0,0.,4.8,0.,4.8
1979-07-28 06:29:51.100 ,7,0,,0,9.,4.8,0.,4.8,,0,1.,4.8,0.,4.8
1979-07-28 06:29:55.900 ,7,0,,0,11.,4.8,0.,4.8,,0,0.,4.8,0.,4.8
1979-07-28 06:30:00.700 ,7,0,,0,5.,4.8,0.,4.8,,0,0.,4.8,0.,4.8
1979-07-28 06:30:05.500 ,7,0,,0,13.,4.8,0.,4.8,,0,0.,4.8,0.,4.8